Location: Unspecified
(40.1309°N, 0.0000°E)
Time: 21:54:29
(UTC+00:00)

Tiros 1 despin weight - Visible Passes

Search period start: 04 April 2026 00:00
Search period end: 14 April 2026 00:00
Orbit: 555 x 593 km, 48.2° (Epoch: 29 March)

Date Brightness Start Highest point End Pass type
(mag) Time Alt. Az. Time Alt. Az. Time Alt. Az.
4 Apr ? 03:52:24 29° S 03:52:24 29° S 03:55:02 10° SSE visible
4 Apr ? 19:26:07 10° S 19:29:02 18° SE 19:29:27 17° SE visible
4 Apr ? 21:04:47 10° WSW 21:05:42 16° WSW 21:05:42 16° WSW visible
5 Apr ? 03:55:54 13° S 03:55:54 13° S 03:56:28 10° S visible
5 Apr ? 19:27:14 10° SSW 19:30:53 27° SE 19:32:57 19° E visible
5 Apr ? 21:06:55 10° WSW 21:09:10 29° W 21:09:10 29° W visible
6 Apr ? 19:28:44 10° SSW 19:32:48 42° SE 19:36:07 15° ENE visible
6 Apr ? 21:09:09 10° W 21:12:20 39° WNW 21:12:20 39° WNW visible
7 Apr ? 19:30:30 10° SW 19:34:46 64° SE 19:38:58 11° ENE visible
7 Apr ? 21:11:28 10° W 21:15:09 37° NNW 21:15:09 37° NNW visible
8 Apr ? 19:32:27 10° WSW 19:36:46 87° NNW 19:41:09 10° ENE visible
8 Apr ? 21:13:48 10° WNW 21:17:42 32° NNW 21:17:42 32° NNW visible
9 Apr ? 19:34:32 10° WSW 19:38:49 63° NNW 19:43:10 10° NE visible
9 Apr ? 21:16:08 10° WNW 21:19:58 29° N 21:20:02 29° N visible
10 Apr ? 19:36:45 10° W 19:40:56 47° NNW 19:45:10 10° NE visible
10 Apr ? 21:18:25 10° WNW 21:22:12 28° N 21:22:12 28° N visible
11 Apr ? 19:39:02 10° W 19:43:04 37° NNW 19:47:09 10° NE visible
11 Apr ? 21:20:38 10° WNW 21:24:14 28° N 21:24:14 28° N visible
12 Apr ? 19:41:20 10° WNW 19:45:14 32° NNW 19:49:11 10° NE visible
12 Apr ? 21:22:46 10° NW 21:26:11 29° N 21:26:11 29° N visible
13 Apr ? 19:43:38 10° WNW 19:47:25 29° N 19:51:15 10° NE visible
13 Apr ? 21:24:49 10° NW 21:28:04 32° N 21:28:04 32° N visible
